Time,TemperatureF,DewpointF,PressureIn,WindDirection,WindDirectionDegrees,WindSpeedMPH,WindSpeedGustMPH,Humidity,HourlyPrecipIn,Conditions,Clouds,dailyrainin,SoftwareType,DateUTC
2013-06-27 00:02:00,83.7,23.5,30.07,South,174,1.0,3.0,11,0.00,,,0.00,meteohub,2013-06-27 06:02:00,
2013-06-27 00:07:00,83.1,20.8,30.07,South,174,2.0,3.0,10,0.00,,,0.00,meteohub,2013-06-27 06:07:00,
2013-06-27 00:12:00,83.5,21.2,30.07,South,174,0.0,3.0,10,0.00,,,0.00,meteohub,2013-06-27 06:12:00,
2013-06-27 00:17:00,83.8,21.4,30.07,West,267,2.0,2.0,10,0.00,,,0.00,meteohub,2013-06-27 06:17:00,
2013-06-27 00:22:00,84.4,16.7,30.07,NE,36,2.0,3.0,8,0.00,,,0.00,meteohub,2013-06-27 06:22:00,
2013-06-27 00:27:00,84.4,16.7,30.07,NE,53,4.0,5.0,8,0.00,,,0.00,meteohub,2013-06-27 06:27:00,
2013-06-27 00:32:00,84.9,14.0,30.07,NNE,23,4.0,8.0,7,0.00,,,0.00,meteohub,2013-06-27 06:32:00,
2013-06-27 00:37:00,85.6,10.9,30.07,North,0,2.0,8.0,6,0.00,,,0.00,meteohub,2013-06-27 06:37:00,
2013-06-27 00:42:00,86.4,11.5,30.07,North,355,2.0,8.0,6,0.00,,,0.00,meteohub,2013-06-27 06:42:00,
2013-06-27 00:47:00,86.0,11.3,30.08,NE,49,5.0,10.0,6,0.00,,,0.00,meteohub,2013-06-27 06:47:00,
2013-06-27 00:52:00,85.5,14.4,30.07,NE,49,4.0,10.0,7,0.00,,,0.00,meteohub,2013-06-27 06:52:00,
2013-06-27 00:57:00,85.1,14.2,30.07,NNW,343,2.0,7.0,7,0.00,,,0.00,meteohub,2013-06-27 06:57:00,
2013-06-27 01:02:00,84.7,13.8,30.07,NNW,343,0.0,6.0,7,0.00,,,0.00,meteohub,2013-06-27 07:02:00,
2013-06-27 01:07:00,84.4,16.7,30.07,NNW,343,0.0,5.0,8,0.00,,,0.00,meteohub,2013-06-27 07:07:00,
2013-06-27 01:12:00,83.1,15.8,30.07,NNW,343,1.0,5.0,8,0.00,,,0.00,meteohub,2013-06-27 07:12:00,
2013-06-27 01:17:00,83.1,15.8,30.07,NNW,343,0.0,3.0,8,0.00,,,0.00,meteohub,2013-06-27 07:17:00,
2013-06-27 01:22:00,82.6,15.3,30.07,NW,320,0.0,3.0,8,0.00,,,0.00,meteohub,2013-06-27 07:22:00,
2013-06-27 01:27:00,82.0,17.6,30.07,NW,320,1.0,4.0,9,0.00,,,0.00,meteohub,2013-06-27 07:27:00,
2013-06-27 01:32:00,81.7,17.4,30.07,NW,320,1.0,4.0,9,0.00,,,0.00,meteohub,2013-06-27 07:32:00,
2013-06-27 01:37:00,81.3,19.6,30.07,NW,320,1.0,3.0,10,0.00,,,0.00,meteohub,2013-06-27 07:37:00,
2013-06-27 01:42:00,81.1,16.9,30.07,NW,320,1.0,3.0,9,0.00,,,0.00,meteohub,2013-06-27 07:42:00,
2013-06-27 01:47:00,81.1,16.9,30.08,NW,320,1.0,3.0,9,0.00,,,0.00,meteohub,2013-06-27 07:47:00,
2013-06-27 01:52:00,81.0,16.9,30.07,NW,322,0.0,4.0,9,0.00,,,0.00,meteohub,2013-06-27 07:52:00,
2013-06-27 01:57:00,80.4,16.3,30.07,NW,322,0.0,4.0,9,0.00,,,0.00,meteohub,2013-06-27 07:57:00,
2013-06-27 02:02:00,80.2,16.3,30.07,NW,322,0.0,4.0,9,0.00,,,0.00,meteohub,2013-06-27 08:02:00,
2013-06-27 02:07:00,80.2,16.3,30.07,NW,322,2.0,3.0,9,0.00,,,0.00,meteohub,2013-06-27 08:07:00,
2013-06-27 02:12:00,79.0,15.3,30.07,NW,322,1.0,3.0,9,0.00,,,0.00,meteohub,2013-06-27 08:12:00,
2013-06-27 02:17:00,78.4,14.9,30.07,West,280,0.0,4.0,9,0.00,,,0.00,meteohub,2013-06-27 08:17:00,
2013-06-27 02:22:00,78.1,14.7,30.07,West,280,1.0,4.0,9,0.00,,,0.00,meteohub,2013-06-27 08:22:00,
2013-06-27 02:27:00,77.5,14.2,30.07,West,280,0.0,5.0,9,0.00,,,0.00,meteohub,2013-06-27 08:27:00,
2013-06-27 02:32:00,77.4,16.5,30.07,West,280,0.0,5.0,10,0.00,,,0.00,meteohub,2013-06-27 08:32:00,
2013-06-27 02:37:00,77.4,16.5,30.07,West,280,0.0,5.0,10,0.00,,,0.00,meteohub,2013-06-27 08:37:00,
2013-06-27 02:42:00,77.4,14.2,30.07,West,280,0.0,3.0,9,0.00,,,0.00,meteohub,2013-06-27 08:42:00,
2013-06-27 02:47:00,78.1,14.7,30.07,West,280,0.0,3.0,9,0.00,,,0.00,meteohub,2013-06-27 08:47:00,
2013-06-27 02:52:00,76.8,20.3,30.07,West,280,2.0,3.0,12,0.00,,,0.00,meteohub,2013-06-27 08:52:00,
2013-06-27 02:57:00,75.7,17.4,30.07,West,280,0.0,3.0,11,0.00,,,0.00,meteohub,2013-06-27 08:57:00,
2013-06-27 03:02:00,75.6,17.4,30.07,West,280,0.0,3.0,11,0.00,,,0.00,meteohub,2013-06-27 09:02:00,
2013-06-27 03:07:00,75.2,17.1,30.07,West,280,4.0,4.0,11,0.00,,,0.00,meteohub,2013-06-27 09:07:00,
2013-06-27 03:12:00,75.6,15.1,30.07,West,261,1.0,5.0,10,0.00,,,0.00,meteohub,2013-06-27 09:12:00,
2013-06-27 03:17:00,75.7,17.4,30.07,West,277,4.0,5.0,11,0.00,,,0.00,meteohub,2013-06-27 09:17:00,
2013-06-27 03:22:00,76.3,15.6,30.07,West,277,0.0,5.0,10,0.00,,,0.00,meteohub,2013-06-27 09:22:00,
2013-06-27 03:27:00,76.6,16.0,30.08,West,280,1.0,5.0,10,0.00,,,0.00,meteohub,2013-06-27 09:27:00,
2013-06-27 03:32:00,76.3,13.3,30.08,West,280,2.0,5.0,9,0.00,,,0.00,meteohub,2013-06-27 09:32:00,
2013-06-27 03:37:00,75.9,13.1,30.08,West,280,2.0,4.0,9,0.00,,,0.00,meteohub,2013-06-27 09:37:00,
2013-06-27 03:42:00,75.0,14.7,30.07,West,280,3.0,3.0,10,0.00,,,0.00,meteohub,2013-06-27 09:42:00,
2013-06-27 03:47:00,74.7,14.5,30.08,West,280,0.0,4.0,10,0.00,,,0.00,meteohub,2013-06-27 09:47:00,
2013-06-27 03:52:00,74.1,16.2,30.07,West,280,2.0,4.0,11,0.00,,,0.00,meteohub,2013-06-27 09:52:00,
2013-06-27 03:57:00,73.8,18.0,30.07,West,280,2.0,4.0,12,0.00,,,0.00,meteohub,2013-06-27 09:57:00,
2013-06-27 04:02:00,73.8,13.8,30.07,WNW,296,0.0,6.0,10,0.00,,,0.00,meteohub,2013-06-27 10:02:00,
2013-06-27 04:07:00,73.9,16.2,30.07,WNW,296,2.0,6.0,11,0.00,,,0.00,meteohub,2013-06-27 10:07:00,
2013-06-27 04:12:00,73.0,15.4,30.07,WNW,296,0.0,6.0,11,0.00,,,0.00,meteohub,2013-06-27 10:12:00,
2013-06-27 04:17:00,72.7,17.1,30.08,WNW,296,0.0,2.0,12,0.00,,,0.00,meteohub,2013-06-27 10:17:00,
2013-06-27 04:22:00,72.9,17.2,30.08,WNW,296,0.0,2.0,12,0.00,,,0.00,meteohub,2013-06-27 10:22:00,
2013-06-27 04:27:00,73.0,15.4,30.08,WNW,296,0.0,1.0,11,0.00,,,0.00,meteohub,2013-06-27 10:27:00,
2013-06-27 04:32:00,72.9,15.3,30.08,WNW,296,1.0,1.0,11,0.00,,,0.00,meteohub,2013-06-27 10:32:00,
2013-06-27 04:37:00,72.3,12.7,30.08,WNW,296,1.0,2.0,10,0.00,,,0.00,meteohub,2013-06-27 10:37:00,
2013-06-27 04:42:00,71.6,18.1,30.08,WNW,296,0.0,2.0,13,0.00,,,0.00,meteohub,2013-06-27 10:42:00,
2013-06-27 04:47:00,71.2,17.8,30.07,WNW,296,0.0,2.0,13,0.00,,,0.00,meteohub,2013-06-27 10:47:00,
2013-06-27 04:52:00,71.4,18.0,30.07,WNW,296,1.0,2.0,13,0.00,,,0.00,meteohub,2013-06-27 10:52:00,
2013-06-27 04:57:00,71.2,16.0,30.07,WNW,296,1.0,2.0,12,0.00,,,0.00,meteohub,2013-06-27 10:57:00,
2013-06-27 05:02:00,71.2,17.8,30.07,WNW,296,0.0,2.0,13,0.00,,,0.00,meteohub,2013-06-27 11:02:00,
2013-06-27 05:07:00,71.2,17.8,30.08,WNW,296,0.0,2.0,13,0.00,,,0.00,meteohub,2013-06-27 11:07:00,
2013-06-27 05:12:00,71.1,17.8,30.08,WNW,296,3.0,3.0,13,0.00,,,0.00,meteohub,2013-06-27 11:12:00,
2013-06-27 05:17:00,70.9,15.8,30.08,WNW,296,0.0,5.0,12,0.00,,,0.00,meteohub,2013-06-27 11:17:00,
2013-06-27 05:22:00,70.9,13.8,30.08,WNW,296,1.0,5.0,11,0.00,,,0.00,meteohub,2013-06-27 11:22:00,
2013-06-27 05:27:00,70.9,13.8,30.08,WNW,296,0.0,5.0,11,0.00,,,0.00,meteohub,2013-06-27 11:27:00,
2013-06-27 05:32:00,71.1,15.8,30.08,WNW,296,0.0,3.0,12,0.00,,,0.00,meteohub,2013-06-27 11:32:00,
2013-06-27 05:37:00,71.2,14.0,30.08,WNW,296,0.0,2.0,11,0.00,,,0.00,meteohub,2013-06-27 11:37:00,
2013-06-27 05:42:00,70.5,15.4,30.08,WNW,296,1.0,3.0,12,0.00,,,0.00,meteohub,2013-06-27 11:42:00,
2013-06-27 05:47:00,70.3,17.2,30.08,NE,51,2.0,3.0,13,0.00,,,0.00,meteohub,2013-06-27 11:47:00,
2013-06-27 05:52:00,69.6,16.5,30.08,NE,51,0.0,5.0,13,0.00,,,0.00,meteohub,2013-06-27 11:52:00,
2013-06-27 05:57:00,69.3,16.3,30.09,NE,51,0.0,5.0,13,0.00,,,0.00,meteohub,2013-06-27 11:57:00,
2013-06-27 06:02:00,69.3,18.0,30.09,NE,51,1.0,5.0,14,0.00,,,0.00,meteohub,2013-06-27 12:02:00,
2013-06-27 06:07:00,69.3,18.0,30.09,NE,44,2.0,4.0,14,0.00,,,0.00,meteohub,2013-06-27 12:07:00,
2013-06-27 06:12:00,69.1,16.2,30.09,NE,55,2.0,4.0,13,0.00,,,0.00,meteohub,2013-06-27 12:12:00,
2013-06-27 06:17:00,69.4,14.5,30.09,WSW,238,3.0,6.0,12,0.00,,,0.00,meteohub,2013-06-27 12:17:00,
2013-06-27 06:22:00,69.6,14.7,30.09,SW,231,8.0,8.0,12,0.00,,,0.00,meteohub,2013-06-27 12:22:00,
2013-06-27 06:27:00,70.0,13.1,30.09,SW,225,4.0,9.0,11,0.00,,,0.00,meteohub,2013-06-27 12:27:00,
2013-06-27 06:32:00,70.2,13.1,30.10,SW,233,5.0,9.0,11,0.00,,,0.00,meteohub,2013-06-27 12:32:00,
2013-06-27 06:37:00,70.3,13.3,30.10,West,259,5.0,9.0,11,0.00,,,0.00,meteohub,2013-06-27 12:37:00,
2013-06-27 06:42:00,70.9,13.8,30.10,SW,234,3.0,7.0,11,0.00,,,0.00,meteohub,2013-06-27 12:42:00,
2013-06-27 06:47:00,71.2,14.0,30.10,SW,236,2.0,7.0,11,0.00,,,0.00,meteohub,2013-06-27 12:47:00,
2013-06-27 06:52:00,71.4,16.2,30.10,SW,227,3.0,6.0,12,0.00,,,0.00,meteohub,2013-06-27 12:52:00,
2013-06-27 06:57:00,71.4,16.2,30.10,SW,229,5.0,6.0,12,0.00,,,0.00,meteohub,2013-06-27 12:57:00,
2013-06-27 07:02:00,71.2,17.8,30.11,SW,223,7.0,7.0,13,0.00,,,0.00,meteohub,2013-06-27 13:02:00,
2013-06-27 07:07:00,71.2,16.0,30.11,SW,223,2.0,8.0,12,0.00,,,0.00,meteohub,2013-06-27 13:07:00,
2013-06-27 07:12:00,71.4,16.2,30.11,SW,230,5.0,8.0,12,0.00,,,0.00,meteohub,2013-06-27 13:12:00,
2013-06-27 07:17:00,72.0,16.5,30.11,WSW,258,2.0,8.0,12,0.00,,,0.00,meteohub,2013-06-27 13:17:00,
2013-06-27 07:22:00,72.3,16.9,30.11,West,260,2.0,7.0,12,0.00,,,0.00,meteohub,2013-06-27 13:22:00,
2013-06-27 07:27:00,73.0,17.4,30.11,West,259,0.0,7.0,12,0.00,,,0.00,meteohub,2013-06-27 13:27:00,
2013-06-27 07:32:00,73.9,19.9,30.11,West,260,0.0,5.0,13,0.00,,,0.00,meteohub,2013-06-27 13:32:00,
2013-06-27 07:37:00,74.5,16.5,30.12,West,260,1.0,4.0,11,0.00,,,0.00,meteohub,2013-06-27 13:37:00,
2013-06-27 07:42:00,75.0,16.9,30.12,WSW,246,0.0,4.0,11,0.00,,,0.00,meteohub,2013-06-27 13:42:00,
2013-06-27 07:47:00,75.9,15.4,30.12,WSW,246,0.0,4.0,10,0.00,,,0.00,meteohub,2013-06-27 13:47:00,
2013-06-27 07:52:00,76.6,16.0,30.12,WSW,246,0.0,4.0,10,0.00,,,0.00,meteohub,2013-06-27 13:52:00,
2013-06-27 07:57:00,77.4,16.5,30.12,WSW,246,1.0,3.0,10,0.00,,,0.00,meteohub,2013-06-27 13:57:00,
2013-06-27 08:02:00,78.3,17.2,30.12,WSW,246,0.0,3.0,10,0.00,,,0.00,meteohub,2013-06-27 14:02:00,
2013-06-27 08:07:00,78.4,14.9,30.12,WSW,246,2.0,3.0,9,0.00,,,0.00,meteohub,2013-06-27 14:07:00,
2013-06-27 08:12:00,79.3,15.6,30.13,WSW,246,0.0,3.0,9,0.00,,,0.00,meteohub,2013-06-27 14:12:00,
2013-06-27 08:17:00,80.1,16.2,30.12,WSW,246,1.0,5.0,9,0.00,,,0.00,meteohub,2013-06-27 14:17:00,
2013-06-27 08:22:00,80.8,16.7,30.13,WSW,246,1.0,5.0,9,0.00,,,0.00,meteohub,2013-06-27 14:22:00,
2013-06-27 08:27:00,81.5,17.2,30.13,WSW,246,3.0,3.0,9,0.00,,,0.00,meteohub,2013-06-27 14:27:00,
2013-06-27 08:32:00,82.0,17.6,30.13,WSW,246,1.0,3.0,9,0.00,,,0.00,meteohub,2013-06-27 14:32:00,
2013-06-27 08:37:00,82.2,17.8,30.12,WSW,246,1.0,3.0,9,0.00,,,0.00,meteohub,2013-06-27 14:37:00,
2013-06-27 08:42:00,82.6,18.0,30.13,WSW,246,0.0,3.0,9,0.00,,,0.00,meteohub,2013-06-27 14:42:00,
2013-06-27 08:47:00,83.1,15.8,30.13,WSW,246,1.0,3.0,8,0.00,,,0.00,meteohub,2013-06-27 14:47:00,
2013-06-27 08:52:00,83.3,15.8,30.13,WSW,246,3.0,3.0,8,0.00,,,0.00,meteohub,2013-06-27 14:52:00,
2013-06-27 08:57:00,83.8,13.3,30.13,WSW,246,0.0,3.0,7,0.00,,,0.00,meteohub,2013-06-27 14:57:00,
2013-06-27 09:02:00,84.0,13.3,30.13,NW,322,2.0,5.0,7,0.00,,,0.00,meteohub,2013-06-27 15:02:00,
2013-06-27 09:07:00,84.6,10.2,30.14,NW,321,3.0,5.0,6,0.00,,,0.00,meteohub,2013-06-27 15:07:00,
2013-06-27 09:12:00,85.1,14.2,30.13,NW,313,2.0,6.0,7,0.00,,,0.00,meteohub,2013-06-27 15:12:00,
2013-06-27 09:17:00,85.5,14.4,30.13,NW,314,4.0,8.0,7,0.00,,,0.00,meteohub,2013-06-27 15:17:00,
2013-06-27 09:22:00,85.6,14.5,30.13,NNW,344,5.0,10.0,7,0.00,,,0.00,meteohub,2013-06-27 15:22:00,
2013-06-27 09:27:00,86.2,14.9,30.14,NNW,348,3.0,10.0,7,0.00,,,0.00,meteohub,2013-06-27 15:27:00,
2013-06-27 09:32:00,86.2,14.9,30.14,NNW,341,4.0,10.0,7,0.00,,,0.00,meteohub,2013-06-27 15:32:00,
2013-06-27 09:37:00,86.5,15.3,30.13,NNW,328,5.0,7.0,7,0.00,,,0.00,meteohub,2013-06-27 15:37:00,
2013-06-27 09:42:00,87.1,15.6,30.13,NW,315,2.0,8.0,7,0.00,,,0.00,meteohub,2013-06-27 15:42:00,
2013-06-27 09:47:00,87.6,12.4,30.13,NW,315,1.0,8.0,6,0.00,,,0.00,meteohub,2013-06-27 15:47:00,
2013-06-27 09:52:00,88.2,12.9,30.13,NW,306,4.0,8.0,6,0.00,,,0.00,meteohub,2013-06-27 15:52:00,
2013-06-27 09:57:00,88.5,13.1,30.13,NW,325,3.0,7.0,6,0.00,,,0.00,meteohub,2013-06-27 15:57:00,
2013-06-27 10:02:00,88.9,13.3,30.13,NNW,340,0.0,6.0,6,0.00,,,0.00,meteohub,2013-06-27 16:02:00,
2013-06-27 10:07:00,89.2,13.6,30.13,WNW,287,0.0,5.0,6,0.00,,,0.00,meteohub,2013-06-27 16:07:00,
2013-06-27 10:12:00,89.4,13.8,30.13,WNW,287,0.0,5.0,6,0.00,,,0.00,meteohub,2013-06-27 16:12:00,
2013-06-27 10:17:00,90.1,14.2,30.12,ENE,70,3.0,5.0,6,0.00,,,0.00,meteohub,2013-06-27 16:17:00,
2013-06-27 10:22:00,90.9,14.7,30.12,ESE,120,3.0,5.0,6,0.00,,,0.00,meteohub,2013-06-27 16:22:00,
2013-06-27 10:28:00,90.9,18.3,30.12,East,79,3.0,5.0,7,0.00,,,0.00,meteohub,2013-06-27 16:28:00,
2013-06-27 10:34:00,92.5,16.0,30.12,ENE,69,8.0,8.0,6,0.00,,,0.00,meteohub,2013-06-27 16:34:00,
2013-06-27 10:40:00,92.7,16.0,30.12,NE,55,2.0,8.0,6,0.00,,,0.00,meteohub,2013-06-27 16:40:00,
2013-06-27 10:45:00,92.7,16.0,30.12,NE,38,3.0,8.0,6,0.00,,,0.00,meteohub,2013-06-27 16:45:00,
2013-06-27 10:51:00,92.7,22.8,30.12,NE,49,5.0,7.0,8,0.00,,,0.00,meteohub,2013-06-27 16:51:00,
2013-06-27 10:57:00,93.6,20.3,30.12,ENE,71,2.0,6.0,7,0.00,,,0.00,meteohub,2013-06-27 16:57:00,
2013-06-27 11:02:00,93.9,20.5,30.12,ENE,62,2.0,6.0,7,0.00,,,0.00,meteohub,2013-06-27 17:02:00,
2013-06-27 11:07:00,94.3,17.2,30.12,ESE,103,1.0,6.0,6,0.00,,,0.00,meteohub,2013-06-27 17:07:00,
2013-06-27 11:12:00,94.8,17.6,30.12,North,0,2.0,6.0,6,0.00,,,0.00,meteohub,2013-06-27 17:12:00,
2013-06-27 11:17:00,94.3,20.8,30.12,North,0,0.0,6.0,7,0.00,,,0.00,meteohub,2013-06-27 17:17:00,
2013-06-27 11:22:00,95.7,18.3,30.12,East,91,2.0,6.0,6,0.00,,,0.00,meteohub,2013-06-27 17:22:00,
2013-06-27 11:27:00,96.3,18.7,30.12,SE,126,0.0,6.0,6,0.00,,,0.00,meteohub,2013-06-27 17:27:00,
2013-06-27 11:32:00,96.6,18.9,30.12,East,96,0.0,7.0,6,0.00,,,0.00,meteohub,2013-06-27 17:32:00,
2013-06-27 11:37:00,95.7,18.3,30.12,SE,131,3.0,7.0,6,0.00,,,0.00,meteohub,2013-06-27 17:37:00,
2013-06-27 11:42:00,95.5,18.1,30.12,East,98,1.0,7.0,6,0.00,,,0.00,meteohub,2013-06-27 17:42:00,
2013-06-27 11:47:00,97.3,19.4,30.12,ESE,113,3.0,4.0,6,0.00,,,0.00,meteohub,2013-06-27 17:47:00,
2013-06-27 11:52:00,98.1,19.9,30.11,ESE,113,1.0,5.0,6,0.00,,,0.00,meteohub,2013-06-27 17:52:00,
2013-06-27 11:57:00,98.2,15.8,30.11,NE,43,1.0,5.0,5,0.00,,,0.00,meteohub,2013-06-27 17:57:00,
2013-06-27 12:02:00,97.9,19.8,30.11,NE,55,5.0,6.0,6,0.00,,,0.00,meteohub,2013-06-27 18:02:00,
2013-06-27 12:08:00,98.2,19.9,30.11,NNE,21,1.0,7.0,6,0.00,,,0.00,meteohub,2013-06-27 18:08:00,
2013-06-27 12:14:00,98.8,16.2,30.11,NW,317,4.0,7.0,5,0.00,,,0.00,meteohub,2013-06-27 18:14:00,
2013-06-27 12:20:00,99.0,16.3,30.11,North,351,0.0,7.0,5,0.00,,,0.00,meteohub,2013-06-27 18:20:00,
2013-06-27 12:25:00,99.5,20.8,30.11,East,84,1.0,6.0,6,0.00,,,0.00,meteohub,2013-06-27 18:25:00,
2013-06-27 12:31:00,99.9,16.9,30.10,NW,305,0.0,7.0,5,0.00,,,0.00,meteohub,2013-06-27 18:31:00,
2013-06-27 12:37:00,99.9,16.9,30.10,East,83,5.0,7.0,5,0.00,,,0.00,meteohub,2013-06-27 18:37:00,
2013-06-27 12:42:00,100.9,17.6,30.10,NNE,22,4.0,7.0,5,0.00,,,0.00,meteohub,2013-06-27 18:42:00,
2013-06-27 12:47:00,100.8,17.6,30.10,East,95,0.0,7.0,5,0.00,,,0.00,meteohub,2013-06-27 18:47:00,
2013-06-27 12:52:00,100.8,12.4,30.10,NW,314,5.0,6.0,4,0.00,,,0.00,meteohub,2013-06-27 18:52:00,
2013-06-27 12:57:00,100.8,12.4,30.09,NW,308,3.0,7.0,4,0.00,,,0.00,meteohub,2013-06-27 18:57:00,
2013-06-27 13:02:00,101.8,13.1,30.09,WNW,295,3.0,7.0,4,0.00,,,0.00,meteohub,2013-06-27 19:02:00,
2013-06-27 13:07:00,102.7,7.3,30.09,SW,230,4.0,6.0,3,0.00,,,0.00,meteohub,2013-06-27 19:07:00,
2013-06-27 13:13:00,103.3,7.7,30.09,SW,236,3.0,6.0,3,0.00,,,0.00,meteohub,2013-06-27 19:13:00,
2013-06-27 13:19:00,102.6,13.6,30.09,NW,305,0.0,6.0,4,0.00,,,0.00,meteohub,2013-06-27 19:19:00,
2013-06-27 13:24:00,103.5,14.4,30.08,SE,141,5.0,6.0,4,0.00,,,0.00,meteohub,2013-06-27 19:24:00,
2013-06-27 13:30:00,102.9,14.0,30.08,South,186,0.0,6.0,4,0.00,,,0.00,meteohub,2013-06-27 19:30:00,
2013-06-27 13:36:00,104.4,14.9,30.08,NE,41,2.0,7.0,4,0.00,,,0.00,meteohub,2013-06-27 19:36:00,
2013-06-27 13:42:00,105.3,15.4,30.08,East,85,6.0,7.0,4,0.00,,,0.00,meteohub,2013-06-27 19:42:00,
2013-06-27 13:47:00,105.1,9.0,30.07,ENE,72,3.0,8.0,3,0.00,,,0.00,meteohub,2013-06-27 19:47:00,
2013-06-27 13:52:00,104.2,14.7,30.07,East,89,0.0,8.0,4,0.00,,,0.00,meteohub,2013-06-27 19:52:00,
2013-06-27 13:57:00,104.4,8.4,30.07,East,98,1.0,8.0,3,0.00,,,0.00,meteohub,2013-06-27 19:57:00,
2013-06-27 14:02:00,104.4,8.4,30.07,West,265,4.0,7.0,3,0.00,,,0.00,meteohub,2013-06-27 20:02:00,
2013-06-27 14:07:00,104.5,8.6,30.06,NW,304,1.0,7.0,3,0.00,,,0.00,meteohub,2013-06-27 20:07:00,
2013-06-27 14:12:00,105.3,15.4,30.06,NNW,340,2.0,5.0,4,0.00,,,0.00,meteohub,2013-06-27 20:12:00,
2013-06-27 14:17:00,105.4,9.1,30.06,NE,41,3.0,5.0,3,0.00,,,0.00,meteohub,2013-06-27 20:17:00,
2013-06-27 14:22:00,105.4,9.1,30.06,NNE,22,0.0,8.0,3,0.00,,,0.00,meteohub,2013-06-27 20:22:00,
2013-06-27 14:27:00,106.0,9.5,30.06,NNW,328,6.0,8.0,3,0.00,,,0.00,meteohub,2013-06-27 20:27:00,
2013-06-27 14:32:00,105.3,0.1,30.05,North,9,0.0,8.0,2,0.00,,,0.00,meteohub,2013-06-27 20:32:00,
2013-06-27 14:37:00,106.2,9.5,30.05,North,355,4.0,8.0,3,0.00,,,0.00,meteohub,2013-06-27 20:37:00,
2013-06-27 14:42:00,106.0,9.5,30.05,North,5,4.0,8.0,3,0.00,,,0.00,meteohub,2013-06-27 20:42:00,
2013-06-27 14:47:00,106.0,0.7,30.05,NNE,23,0.0,7.0,2,0.00,,,0.00,meteohub,2013-06-27 20:47:00,
2013-06-27 14:53:00,106.0,0.7,30.04,SE,126,1.0,7.0,2,0.00,,,0.00,meteohub,2013-06-27 20:53:00,
2013-06-27 14:58:00,106.9,1.2,30.04,NNE,17,2.0,7.0,2,0.00,,,0.00,meteohub,2013-06-27 20:58:00,
2013-06-27 15:04:00,107.1,1.2,30.04,NNE,32,0.0,10.0,2,0.00,,,0.00,meteohub,2013-06-27 21:04:00,
2013-06-27 15:10:00,106.5,1.0,30.04,NNE,15,6.0,10.0,2,0.00,,,0.00,meteohub,2013-06-27 21:10:00,
2013-06-27 15:15:00,106.9,10.0,30.04,NNE,23,0.0,7.0,3,0.00,,,0.00,meteohub,2013-06-27 21:15:00,
2013-06-27 15:21:00,107.2,1.4,30.04,NNW,333,4.0,7.0,2,0.00,,,0.00,meteohub,2013-06-27 21:21:00,
2013-06-27 15:27:00,106.9,10.0,30.04,NNE,21,5.0,8.0,3,0.00,,,0.00,meteohub,2013-06-27 21:27:00,
2013-06-27 15:32:00,107.2,1.4,30.04,NE,36,0.0,10.0,2,0.00,,,0.00,meteohub,2013-06-27 21:32:00,
2013-06-27 15:37:00,106.3,0.9,30.04,NW,306,4.0,10.0,2,0.00,,,0.00,meteohub,2013-06-27 21:37:00,
2013-06-27 15:42:00,107.8,1.8,30.04,NE,37,9.0,10.0,2,0.00,,,0.00,meteohub,2013-06-27 21:42:00,
2013-06-27 15:47:00,107.1,10.2,30.03,NE,55,6.0,9.0,3,0.00,,,0.00,meteohub,2013-06-27 21:47:00,
2013-06-27 15:52:00,107.2,1.4,30.03,NNE,20,6.0,9.0,2,0.00,,,0.00,meteohub,2013-06-27 21:52:00,
2013-06-27 15:58:00,107.1,10.2,30.03,ENE,68,4.0,9.0,3,0.00,,,0.00,meteohub,2013-06-27 21:58:00,
2013-06-27 16:03:00,107.4,1.6,30.03,ESE,106,2.0,8.0,2,0.00,,,0.00,meteohub,2013-06-27 22:03:00,
2013-06-27 16:09:00,107.8,1.8,30.02,South,171,3.0,8.0,2,0.00,,,0.00,meteohub,2013-06-27 22:09:00,
2013-06-27 16:15:00,107.1,1.2,30.02,South,178,0.0,7.0,2,0.00,,,0.00,meteohub,2013-06-27 22:15:00,
2013-06-27 16:21:00,107.1,1.2,30.02,South,190,8.0,8.0,2,0.00,,,0.00,meteohub,2013-06-27 22:21:00,
2013-06-27 16:26:00,107.2,1.4,30.02,South,186,0.0,8.0,2,0.00,,,0.00,meteohub,2013-06-27 22:26:00,
2013-06-27 16:32:00,108.1,10.9,30.01,ENE,74,2.0,8.0,3,0.00,,,0.00,meteohub,2013-06-27 22:32:00,
2013-06-27 16:38:00,108.7,11.3,30.01,SE,130,5.0,8.0,3,0.00,,,0.00,meteohub,2013-06-27 22:38:00,
2013-06-27 16:43:00,107.8,1.8,30.01,SE,140,5.0,9.0,2,0.00,,,0.00,meteohub,2013-06-27 22:43:00,
2013-06-27 16:48:00,107.1,1.2,30.01,SSE,164,5.0,9.0,2,0.00,,,0.00,meteohub,2013-06-27 22:48:00,
2013-06-27 16:54:00,107.2,1.4,30.01,SSE,151,2.0,9.0,2,0.00,,,0.00,meteohub,2013-06-27 22:54:00,
2013-06-27 17:00:00,107.4,1.6,30.01,SSW,198,6.0,9.0,2,0.00,,,0.00,meteohub,2013-06-27 23:00:00,
2013-06-27 17:05:00,107.4,1.6,30.01,SSW,192,1.0,8.0,2,0.00,,,0.00,meteohub,2013-06-27 23:05:00,
2013-06-27 17:11:00,107.8,1.8,30.01,WSW,239,1.0,7.0,2,0.00,,,0.00,meteohub,2013-06-27 23:11:00,
2013-06-27 17:17:00,107.2,10.2,30.01,WSW,239,1.0,6.0,3,0.00,,,0.00,meteohub,2013-06-27 23:17:00,
2013-06-27 17:22:00,107.2,10.2,30.00,ESE,104,5.0,6.0,3,0.00,,,0.00,meteohub,2013-06-27 23:22:00,
2013-06-27 17:27:00,107.2,10.2,30.00,ESE,110,3.0,6.0,3,0.00,,,0.00,meteohub,2013-06-27 23:27:00,
2013-06-27 17:32:00,107.1,1.2,30.00,ESE,110,0.0,8.0,2,0.00,,,0.00,meteohub,2013-06-27 23:32:00,
2013-06-27 17:37:00,107.1,10.2,30.00,ESE,116,2.0,8.0,3,0.00,,,0.00,meteohub,2013-06-27 23:37:00,
2013-06-27 17:42:00,106.5,9.9,30.00,South,174,3.0,8.0,3,0.00,,,0.00,meteohub,2013-06-27 23:42:00,
2013-06-27 17:47:00,106.5,1.0,30.00,SE,145,1.0,8.0,2,0.00,,,0.00,meteohub,2013-06-27 23:47:00,
2013-06-27 17:52:00,106.3,9.7,30.00,SSE,165,3.0,8.0,3,0.00,,,0.00,meteohub,2013-06-27 23:52:00,
2013-06-27 17:57:00,105.4,9.1,30.00,East,86,5.0,8.0,3,0.00,,,0.00,meteohub,2013-06-27 23:57:00,
2013-06-27 18:02:00,105.1,9.0,30.00,SE,130,3.0,7.0,3,0.00,,,0.00,meteohub,2013-06-28 00:02:00,
2013-06-27 18:08:00,104.7,8.6,30.00,SE,138,3.0,7.0,3,0.00,,,0.00,meteohub,2013-06-28 00:08:00,
2013-06-27 18:14:00,104.7,8.6,30.00,SE,145,0.0,5.0,3,0.00,,,0.00,meteohub,2013-06-28 00:14:00,
2013-06-27 18:19:00,104.5,8.6,30.00,SE,145,2.0,5.0,3,0.00,,,0.00,meteohub,2013-06-28 00:19:00,
2013-06-27 18:25:00,104.4,8.4,30.00,SE,145,0.0,4.0,3,0.00,,,0.00,meteohub,2013-06-28 00:25:00,
2013-06-27 18:31:00,104.2,8.2,30.00,SE,145,0.0,3.0,3,0.00,,,0.00,meteohub,2013-06-28 00:31:00,
2013-06-27 18:37:00,103.8,8.1,30.00,SE,145,1.0,3.0,3,0.00,,,0.00,meteohub,2013-06-28 00:37:00,
2013-06-27 18:42:00,103.3,19.2,30.00,SE,144,0.0,3.0,5,0.00,,,0.00,meteohub,2013-06-28 00:42:00,
2013-06-27 18:48:00,103.3,19.2,30.00,SE,144,2.0,3.0,5,0.00,,,0.00,meteohub,2013-06-28 00:48:00,
2013-06-27 18:54:00,103.5,14.4,30.00,SE,144,2.0,3.0,4,0.00,,,0.00,meteohub,2013-06-28 00:54:00,
2013-06-27 18:59:00,103.5,14.4,30.00,SE,144,2.0,2.0,4,0.00,,,0.00,meteohub,2013-06-28 00:59:00,
2013-06-27 19:05:00,103.1,14.0,30.00,SE,144,0.0,3.0,4,0.00,,,0.00,meteohub,2013-06-28 01:05:00,
2013-06-27 19:11:00,103.3,14.2,30.00,SE,144,0.0,3.0,4,0.00,,,0.00,meteohub,2013-06-28 01:11:00,
2013-06-27 19:17:00,102.9,14.0,30.00,SE,144,0.0,1.0,4,0.00,,,0.00,meteohub,2013-06-28 01:17:00,
2013-06-27 19:22:00,102.7,13.8,30.00,SE,144,0.0,1.0,4,0.00,,,0.00,meteohub,2013-06-28 01:22:00,
2013-06-27 19:27:00,102.0,22.6,30.00,SE,144,0.0,1.0,6,0.00,,,0.00,meteohub,2013-06-28 01:27:00,
2013-06-27 19:32:00,101.7,26.2,30.00,SE,144,0.0,0.0,7,0.00,,,0.00,meteohub,2013-06-28 01:32:00,
2013-06-27 19:37:00,101.1,28.9,30.00,SE,144,0.0,0.0,8,0.00,,,0.00,meteohub,2013-06-28 01:37:00,
2013-06-27 19:42:00,100.2,28.4,30.00,SE,144,1.0,1.0,8,0.00,,,0.00,meteohub,2013-06-28 01:42:00,
2013-06-27 19:47:00,99.9,28.0,30.00,SE,144,0.0,2.0,8,0.00,,,0.00,meteohub,2013-06-28 01:47:00,
2013-06-27 19:52:00,99.1,24.3,30.00,SE,144,2.0,2.0,7,0.00,,,0.00,meteohub,2013-06-28 01:52:00,
2013-06-27 19:58:00,98.6,23.9,30.00,SE,144,1.0,3.0,7,0.00,,,0.00,meteohub,2013-06-28 01:58:00,
2013-06-27 20:04:00,98.1,23.5,30.01,SE,144,2.0,3.0,7,0.00,,,0.00,meteohub,2013-06-28 02:04:00,
2013-06-27 20:10:00,97.2,19.2,30.00,SE,144,1.0,3.0,6,0.00,,,0.00,meteohub,2013-06-28 02:10:00,
2013-06-27 20:16:00,96.3,18.7,30.00,SE,145,0.0,2.0,6,0.00,,,0.00,meteohub,2013-06-28 02:16:00,
2013-06-27 20:21:00,95.5,21.7,30.00,SE,145,0.0,2.0,7,0.00,,,0.00,meteohub,2013-06-28 02:21:00,
2013-06-27 20:27:00,94.5,24.1,30.00,SE,145,1.0,2.0,8,0.00,,,0.00,meteohub,2013-06-28 02:27:00,
2013-06-27 20:32:00,94.3,17.2,30.00,SSW,211,3.0,6.0,6,0.00,,,0.00,meteohub,2013-06-28 02:32:00,
2013-06-27 20:37:00,93.7,16.9,30.01,SW,223,4.0,6.0,6,0.00,,,0.00,meteohub,2013-06-28 02:37:00,
2013-06-27 20:43:00,93.0,19.9,30.01,SW,223,2.0,6.0,7,0.00,,,0.00,meteohub,2013-06-28 02:43:00,
2013-06-27 20:49:00,92.8,16.2,30.01,SW,223,2.0,5.0,6,0.00,,,0.00,meteohub,2013-06-28 02:49:00,
2013-06-27 20:54:00,93.6,16.7,30.01,SW,223,3.0,5.0,6,0.00,,,0.00,meteohub,2013-06-28 02:54:00,
2013-06-27 21:00:00,93.6,16.7,30.01,SW,223,4.0,5.0,6,0.00,,,0.00,meteohub,2013-06-28 03:00:00,
2013-06-27 21:06:00,92.7,16.0,30.01,SW,221,3.0,6.0,6,0.00,,,0.00,meteohub,2013-06-28 03:06:00,
2013-06-27 21:12:00,91.8,19.0,30.01,SW,223,3.0,6.0,7,0.00,,,0.00,meteohub,2013-06-28 03:12:00,
2013-06-27 21:17:00,91.0,18.5,30.01,SW,226,3.0,6.0,7,0.00,,,0.00,meteohub,2013-06-28 03:17:00,
2013-06-27 21:22:00,90.5,18.1,30.01,SW,224,5.0,6.0,7,0.00,,,0.00,meteohub,2013-06-28 03:22:00,
2013-06-27 21:27:00,90.1,17.8,30.01,SW,223,2.0,6.0,7,0.00,,,0.00,meteohub,2013-06-28 03:27:00,
2013-06-27 21:32:00,89.8,17.6,30.01,SW,224,2.0,6.0,7,0.00,,,0.00,meteohub,2013-06-28 03:32:00,
2013-06-27 21:37:00,89.2,17.1,30.02,SW,224,0.0,6.0,7,0.00,,,0.00,meteohub,2013-06-28 03:37:00,
2013-06-27 21:43:00,88.9,16.9,30.02,SW,224,0.0,5.0,7,0.00,,,0.00,meteohub,2013-06-28 03:43:00,
2013-06-27 21:48:00,88.9,16.9,30.02,SW,224,2.0,4.0,7,0.00,,,0.00,meteohub,2013-06-28 03:48:00,
2013-06-27 21:54:00,89.4,13.8,30.02,SW,224,3.0,4.0,6,0.00,,,0.00,meteohub,2013-06-28 03:54:00,
2013-06-27 21:59:00,89.1,17.1,30.03,SW,224,3.0,4.0,7,0.00,,,0.00,meteohub,2013-06-28 03:59:00,
2013-06-27 22:02:00,88.5,16.7,30.03,SW,224,2.0,4.0,7,0.00,,,0.00,meteohub,2013-06-28 04:02:00,
2013-06-27 22:03:00,88.3,16.5,30.03,SW,224,2.0,4.0,7,0.00,,,0.00,meteohub,2013-06-28 04:03:00,
2013-06-27 22:05:00,88.2,19.4,30.03,SW,224,2.0,4.0,8,0.00,,,0.00,meteohub,2013-06-28 04:05:00,
2013-06-27 22:11:00,87.6,19.0,30.03,SW,224,0.0,4.0,8,0.00,,,0.00,meteohub,2013-06-28 04:11:00,
2013-06-27 22:17:00,87.3,15.6,30.03,SW,224,0.0,4.0,7,0.00,,,0.00,meteohub,2013-06-28 04:17:00,
2013-06-27 22:23:00,86.7,18.3,30.04,SE,124,3.0,3.0,8,0.00,,,0.00,meteohub,2013-06-28 04:23:00,
2013-06-27 22:29:00,85.5,22.6,30.04,SE,131,2.0,6.0,10,0.00,,,0.00,meteohub,2013-06-28 04:29:00,
2013-06-27 22:35:00,87.6,30.7,30.04,East,94,11.0,11.0,13,0.00,,,0.00,meteohub,2013-06-28 04:35:00,
2013-06-27 22:40:00,89.8,34.2,30.05,SE,132,6.0,14.0,14,0.00,,,0.00,meteohub,2013-06-28 04:40:00,
2013-06-27 22:46:00,90.7,36.7,30.05,SE,126,4.0,14.0,15,0.00,,,0.00,meteohub,2013-06-28 04:46:00,
2013-06-27 22:52:00,90.9,35.1,30.05,ESE,111,4.0,11.0,14,0.00,,,0.00,meteohub,2013-06-28 04:52:00,
2013-06-27 22:57:00,90.7,36.7,30.05,SE,130,5.0,9.0,15,0.00,,,0.00,meteohub,2013-06-28 04:57:00,
2013-06-27 23:02:00,89.8,39.2,30.05,SE,139,6.0,8.0,17,0.00,,,0.00,meteohub,2013-06-28 05:02:00,
2013-06-27 23:07:00,89.4,40.3,30.05,SSE,150,9.0,10.0,18,0.00,,,0.00,meteohub,2013-06-28 05:07:00,
2013-06-27 23:12:00,89.4,40.3,30.06,SE,145,2.0,10.0,18,0.00,,,0.00,meteohub,2013-06-28 05:12:00,
2013-06-27 23:17:00,89.2,40.3,30.06,SE,140,4.0,10.0,18,0.00,,,0.00,meteohub,2013-06-28 05:17:00,
2013-06-27 23:22:00,88.7,39.7,30.06,SSE,153,4.0,10.0,18,0.00,,,0.00,meteohub,2013-06-28 05:22:00,
2013-06-27 23:27:00,88.2,37.9,30.06,SSE,149,6.0,8.0,17,0.00,,,0.00,meteohub,2013-06-28 05:27:00,
2013-06-27 23:32:00,88.2,37.9,30.06,SSE,154,4.0,6.0,17,0.00,,,0.00,meteohub,2013-06-28 05:32:00,
2013-06-27 23:37:00,88.0,37.8,30.06,SSE,166,3.0,6.0,17,0.00,,,0.00,meteohub,2013-06-28 05:37:00,
2013-06-27 23:42:00,88.3,39.4,30.06,South,169,3.0,6.0,18,0.00,,,0.00,meteohub,2013-06-28 05:42:00,
2013-06-27 23:47:00,88.3,37.9,30.06,SSE,168,1.0,6.0,17,0.00,,,0.00,meteohub,2013-06-28 05:47:00,
2013-06-27 23:52:00,88.2,37.9,30.06,SSE,168,0.0,6.0,17,0.00,,,0.00,meteohub,2013-06-28 05:52:00,
2013-06-27 23:57:00,87.4,38.7,30.07,SSE,168,0.0,5.0,18,0.00,,,0.00,meteohub,2013-06-28 05:57:00,